Vertical_Velocity
-0 -1 -1 2 4 3 -1 1 2 2 -1 1 0 -1 -2 -1 -2 -2 -2 -2 -2 -2 -3 -2 -2 -2 -2 -3 -3 -3 -4 -4 -4 -4 -4 -4 -4 -3 -3 -3 -3 -3 -3 -2 -2 -2 -3 -3 -3 -3 -3 -3 -3 -3 -4 -4 -4 -3 -2 -2 -2 -3 -3 -3 -3 -2 -2 -2 -2 -2 -2 -2 -2 -2 -1 -1 -1 -0 -0 0 0 0 -0 -1 -1 -1
-4 -3 -2 -0 3 4 -1 -1 2 3 0 -0 -1 -0 -0 -0 -0 -1 -2 -2 -2 -2 -2 -3 -2 -2 -2 -3 -3 -3 -4 -4 -4 -4 -4 -4 -4 -4 -3 -4 -4 -4 -4 -4 -4 -4 -4 -4 -4 -5 -5 -5 -5 -5 -5 -5 -4 -4 -3 -3 -3 -3 -3 -3 -3 -3 -3 -2 -2 -2 -2 -2 -2 -2 -1 -1 -1 -0 -0 0 0 0 0 -0 -0 -1
-3 -4 -3 -1 3 4 2 -1 -0 1 2 -1 -2 -1 1 1 1 1 1 -1 -2 -2 -1 -2 -2 -2 -1 -2 -2 -3 -4 -4 -4 -4 -4 -4 -4 -4 -4 -4 -4 -5 -5 -5 -5 -5 -5 -5 -6 -6 -6 -6 -5 -5 -5 -5 -4 -4 -3 -3 -3 -3 -3 -3 -3 -3 -3 -3 -3 -2 -2 -2 -2 -1 -1 -1 -1 -1 -0 -0 -0 0 0 0 0 -0
-0 -1 -2 0 2 3 3 1 -0 -2 -0 -1 -2 -2 0 1 1 1 2 2 0 -1 -2 -1 -1 -1 -1 -2 -3 -3 -4 -5 -5 -5 -5 -5 -5 -5 -5 -5 -6 -6 -6 -6 -6 -6 -6 -6 -6 -6 -6 -6 -5 -5 -4 -4 -4 -3 -3 -3 -3 -3 -3 -3 -3 -3 -3 -3 -3 -2 -2 -2 -2 -1 -1 -1 -1 -1 -1 -0 -0 -0 0 0 0 0
1 2 -0 3 2 0 -1 1 0 -2 -3 -2 -2 -2 -2 0 1 1 1 2 2 0 -1 -1 -1 -1 -1 -2 -4 -4 -5 -6 -6 -6 -6 -6 -6 -6 -6 -7 -7 -7 -7 -7 -7 -7 -7 -7 -7 -7 -7 -6 -5 -4 -3 -3 -3 -3 -3 -3 -3 -3 -3 -3 -3 -3 -3 -3 -3 -2 -2 -2 -2 -1 -1 -1 -1 -1 -1 -1 -1 -0 -0 0 0 1
1 3 1 3 3 1 -0 -1 -1 -1 -3 -4 -2 -1 -0 -0 0 1 1 1 1 1 0 0 0 -1 -1 -3 -4 -5 -6 -6 -6 -6 -6 -6 -6 -7 -7 -8 -8 -8 -7 -7 -8 -8 -8 -8 -8 -7 -6 -5 -4 -4 -3 -3 -2 -2 -2 -2 -2 -2 -2 -2 -2 -2 -2 -2 -2 -2 -2 -2 -2 -2 -1 -1 -1 -1 -1 -1 -1 -1 -1 -0 0 0
1 2 3 1 0 1 3 -0 -2 -2 -1 -3 -3 -2 -1 -0 0 1 1 2 2 1 0 1 1 0 -1 -4 -5 -6 -6 -6 -6 -6 -5 -6 -6 -7 -8 -8 -8 -8 -8 -8 -8 -8 -8 -8 -8 -7 -6 -5 -4 -3 -3 -3 -3 -2 -2 -2 -2 -2 -1 -2 -2 -2 -2 -2 -2 -2 -2 -2 -2 -2 -2 -1 -1 -1 -1 -1 -1 -1 -1 -0 -0 -0
-0 -1 1 2 -1 -3 -1 -1 -2 -3 -2 -2 -1 -2 -4 -2 -0 1 1 1 2 2 1 0 0 0 -1 -4 -6 -8 -7 -6 -5 -6 -6 -6 -6 -7 -8 -8 -7 -7 -7 -8 -8 -8 -8 -8 -7 -6 -5 -4 -4 -4 -4 -4 -3 -3 -3 -2 -2 -2 -2 -2 -2 -2 -2 -2 -2 -2 -2 -2 -2 -2 -1 -1 -1 -1 -1 -1 -1 -1 -1 -1 -0 -0
2 -1 -3 0 2 1 -4 -6 -5 -3 -3 -3 -2 -1 -2 -3 -2 0 2 1 1 1 2 2 1 -1 -2 -4 -6 -8 -10 -7 -5 -4 -5 -6 -6 -5 -5 -6 -6 -6 -6 -6 -7 -7 -8 -7 -7 -6 -5 -4 -4 -4 -4 -4 -4 -4 -3 -3 -3 -2 -2 -2 -2 -2 -2 -2 -1 -1 -1 -1 -1 -1 -1 -1 -1 -1 -1 -1 -1 -1 -1 -0 -0 -0
1 1 -1 -3 -1 2 3 -4 -7 -6 -1 -3 -3 -2 1 -0 -1 -0 2 2 1 -0 0 2 2 1 -4 -6 -7 -8 -9 -10 -8 -6 -3 -5 -5 -5 -4 -4 -4 -4 -5 -5 -5 -6 -7 -7 -6 -5 -4 -4 -4 -4 -4 -4 -4 -3 -3 -3 -3 -3 -2 -2 -2 -2 -2 -1 -1 -1 -1 -1 -1 -1 -1 -1 -0 -0 -0 -0 -0 -0 -0 -0 -0 -0
-2 -1 1 -2 -3 -3 1 -1 -4 -4 -2 -2 -4 -5 -2 1 2 2 2 2 1 0 -1 -0 2 3 0 -5 -9 -9 -7 -7 -8 -9 -6 -5 -5 -5 -6 -4 -3 -2 -4 -4 -4 -4 -6 -6 -5 -4 -4 -4 -4 -4 -4 -4 -4 -3 -3 -3 -3 -3 -3 -3 -2 -2 -2 -2 -1 -1 -1 -1 -1 -1 -1 -0 -0 -0 -0 -0 0 0 0 0 0 -0
-1 -1 -1 -1 -2 -3 -4 -4 -3 -2 -1 -0 -2 -5 -6 -4 -0 3 3 2 2 2 1 -1 -0 1 2 -1 -6 -9 -8 -6 -5 -5 -5 -6 -5 -4 -5 -5 -3 -2 -4 -4 -3 -3 -5 -6 -5 -3 -2 -4 -4 -4 -4 -5 -4 -4 -4 -4 -3 -3 -3 -3 -3 -3 -2 -2 -2 -1 -1 -1 -1 -1 -1 -0 -0 -0 0 0 0 1 1 1 1 0
-1 -0 -1 -2 -2 -2 -2 -3 -4 -3 -2 -0 0 -0 -3 -4 -2 -0 0 -0 1 2 3 1 0 -0 -1 -2 -4 -6 -7 -7 -5 -2 0 -2 -2 -3 -5 -4 -1 0 -2 -4 -3 -1 -2 -5 -5 -2 -1 -4 -5 -5 -4 -5 -5 -4 -4 -4 -4 -4 -4 -4 -4 -3 -3 -3 -2 -2 -2 -2 -1 -1 -1 -0 -0 -0 -0 0 1 1 1 1 1 1
-2 -2 -1 -2 -3 -3 -3 -1 -1 -2 -3 -2 -0 0 0 -0 -0 -0 -1 -3 -2 -1 1 1 1 2 1 -3 -6 -7 -5 -4 -4 -2 0 2 2 0 -5 -5 0 4 2 -2 -2 0 2 -2 -3 -2 0 -2 -4 -5 -5 -6 -5 -5 -5 -5 -4 -4 -4 -4 -4 -4 -3 -3 -3 -2 -2 -2 -2 -1 -1 -1 -0 -0 -0 -0 0 1 1 2 2 1
0 -0 -1 -2 -3 -3 -2 -1 -2 -2 -3 -2 -1 -1 -1 -2 -1 -0 0 -3 -4 -4 -2 -3 -2 -0 3 1 -5 -10 -11 -4 1 3 -1 -0 3 4 -2 -7 -2 4 6 1 -1 -0 3 1 -0 -1 0 -1 -3 -4 -5 -5 -5 -5 -5 -5 -5 -4 -4 -4 -4 -4 -4 -3 -3 -3 -3 -2 -2 -2 -1 -1 -0 -0 -0 -0 0 1 1 2 2 2
1 2 1 -1 -2 -2 -2 -0 -1 -2 -4 -3 -1 0 1 -3 -4 -3 0 -2 -4 -4 -2 -1 -3 -3 -2 2 1 -5 -14 -13 -3 7 5 -2 0 4 2 -6 -5 1 7 4 1 -0 1 2 1 1 0 -1 -2 -4 -4 -5 -5 -5 -4 -5 -4 -4 -4 -4 -4 -4 -4 -3 -3 -3 -3 -3 -2 -2 -1 -1 -0 -0 0 0 1 1 1 2 2 2
1 1 -0 0 -0 -1 -2 -1 -1 -1 -2 -2 -2 -1 1 -1 -3 -4 -3 -3 -4 -5 -6 -1 1 0 -3 -2 1 2 -3 -13 -9 0 7 0 -0 2 2 -4 -4 -0 5 5 3 2 1 1 2 2 1 -0 -1 -3 -3 -4 -4 -4 -4 -4 -4 -4 -3 -3 -3 -3 -3 -3 -3 -3 -3 -3 -3 -2 -2 -1 -0 -0 0 1 1 1 2 2 2 2
1 1 -1 -1 -0 -0 0 -0 -2 -3 -2 -2 -2 -3 -4 -3 -2 -3 -5 -4 -4 -4 -7 -4 -1 2 2 -4 -5 -1 5 -7 -9 -4 4 2 2 2 1 -2 -2 2 6 5 4 3 2 2 3 3 2 1 -0 -1 -2 -2 -2 -2 -2 -2 -2 -2 -2 -2 -3 -3 -3 -3 -3 -3 -3 -3 -2 -2 -2 -1 -0 0 1 1 1 2 2 2 2 3
-1 0 1 -2 -2 -1 1 1 -1 -2 -3 -2 -1 -1 -4 -5 -4 -3 -5 -5 -5 -4 -3 -4 -3 -1 4 -2 -4 -3 2 -6 -7 -4 2 2 3 4 4 1 0 3 8 7 5 3 2 3 4 4 3 1 -0 -1 -1 -1 -0 -0 -0 -0 -1 -1 -1 -1 -2 -2 -2 -2 -2 -2 -2 -2 -2 -2 -2 -1 -1 -0 1 1 2 2 2 2 2 2
-2 -1 0 -1 -2 -2 -1 -1 -1 -2 -3 -3 -2 -0 -1 -3 -3 -3 -4 -5 -6 -5 -1 -1 -3 -3 1 -1 -2 -2 -0 -5 -6 -4 1 3 4 4 4 2 2 4 7 7 6 4 3 4 5 5 3 1 -0 -1 -2 -1 -1 -0 -0 -0 -0 -0 -1 -1 -1 -1 -1 -2 -2 -2 -1 -2 -2 -1 -1 -1 -1 -0 1 1 2 2 2 2 2 2
-1 -3 -4 -1 -0 -1 -2 -2 -2 -2 -3 -4 -4 -4 -3 -3 -4 -4 -3 -4 -6 -6 -1 -0 -1 -2 0 -1 -1 -2 -1 -5 -7 -7 -3 3 6 6 4 1 1 2 5 5 5 4 3 4 5 6 4 2 0 -1 -2 -2 -2 -1 -1 -1 -1 -1 -1 -1 -1 -1 -1 -1 -1 -1 -1 -1 -1 -1 -1 -1 -0 -0 1 1 2 2 2 2 2 2
0 -2 -5 -3 -1 -0 -1 -1 -2 -2 -3 -3 -4 -5 -4 -3 -4 -5 -4 -2 -3 -4 -1 -0 -0 -0 1 -0 -1 -1 -0 -6 -9 -9 -7 -2 3 6 5 -0 -2 -0 3 3 3 3 3 4 4 5 4 2 0 -1 -3 -3 -3 -3 -2 -2 -1 -1 -1 -1 -1 -1 -1 -1 -1 -1 -1 -1 -1 -1 -1 -1 -0 0 1 2 2 2 2 2 2 2
-0 -1 -3 -3 -2 -2 -1 -1 -2 -3 -3 -3 -4 -5 -5 -3 -3 -4 -4 -2 -2 -1 -0 1 1 2 3 1 -1 -3 -4 -8 -11 -12 -8 -4 0 4 3 -2 -4 -2 1 2 1 1 2 3 3 3 2 2 0 -1 -3 -3 -3 -3 -3 -3 -3 -2 -2 -2 -2 -2 -2 -1 -1 -1 -1 -1 -1 -1 -1 -1 -1 -0 1 2 2 3 3 2 2 2
-1 -2 -2 -2 -2 -2 -1 -1 -2 -3 -4 -4 -5 -5 -5 -4 -3 -3 -3 -3 -2 -2 -0 1 1 1 1 1 -1 -4 -7 -11 -13 -13 -10 -5 -0 2 0 -5 -6 -4 -0 1 -0 -2 -1 1 1 1 1 0 -0 -1 -2 -3 -3 -4 -4 -4 -4 -3 -3 -3 -3 -3 -3 -2 -2 -2 -2 -1 -2 -2 -2 -2 -1 -0 1 2 3 3 3 3 2 1
-0 -1 -1 -1 -1 -0 -0 -1 -2 -3 -4 -4 -5 -5 -4 -3 -2 -2 -2 -2 -3 -3 -2 -1 -1 -2 -2 -2 -2 -4 -8 -11 -12 -12 -10 -5 -1 2 -1 -6 -8 -6 -3 -1 -1 -2 -3 -1 -1 -1 -1 -1 -1 -1 -1 -2 -3 -4 -4 -4 -4 -4 -4 -4 -4 -4 -4 -3 -3 -3 -3 -3 -3 -3 -3 -2 -1 -0 1 2 3 3 3 2 2 1
0 -0 -0 -0 -0 -0 -0 -1 -2 -3 -4 -4 -4 -4 -3 -2 -1 -0 -0 -2 -3 -4 -4 -3 -3 -2 -2 -2 -2 -4 -7 -10 -11 -9 -6 -3 -0 1 -1 -6 -8 -7 -4 -1 -1 -2 -3 -3 -3 -3 -2 -2 -1 -1 -1 -2 -3 -4 -4 -5 -5 -5 -5 -5 -5 -4 -4 -4 -4 -4 -4 -4 -4 -3 -3 -2 -1 -0 1 2 2 2 2 2 1 1
-1 -1 -0 -0 -0 -0 -0 -1 -2 -3 -4 -4 -4 -3 -1 -1 -0 0 1 -1 -3 -4 -3 -3 -3 -3 -1 0 -0 -3 -6 -9 -10 -8 -4 -1 1 0 -2 -5 -6 -6 -5 -1 0 0 -2 -4 -5 -5 -3 -2 -2 -1 -1 -2 -3 -4 -5 -5 -6 -6 -6 -6 -6 -6 -5 -5 -5 -4 -4 -4 -4 -3 -2 -1 -0 1 1 2 2 1 1 1 1 2
-1 -1 -0 0 -0 -0 -1 -1 -2 -3 -4 -3 -3 -1 -0 -0 -1 -1 0 -1 -2 -3 -2 -2 -3 -3 -1 2 2 -0 -5 -8 -9 -6 -2 1 2 1 -2 -4 -6 -6 -6 -1 2 3 0 -5 -7 -7 -4 -3 -2 -2 -2 -3 -4 -4 -5 -5 -6 -6 -7 -7 -7 -6 -6 -5 -5 -4 -4 -3 -2 -2 -1 -0 1 1 1 2 1 1 1 1 2 3
-0 -0 -0 1 0 -1 -2 -1 -2 -2 -2 -2 -1 -0 0 -0 -2 -3 -2 -2 -2 -2 -2 -2 -3 -3 -1 1 3 2 -2 -7 -8 -5 -0 2 2 1 -3 -4 -6 -7 -8 -3 3 6 5 -3 -7 -8 -6 -4 -3 -3 -3 -4 -4 -4 -4 -5 -5 -6 -6 -7 -7 -6 -5 -4 -4 -3 -2 -1 -1 -0 1 1 1 1 2 1 1 0 0 1 2 3
-1 -1 -2 -1 -0 -0 -2 -2 -1 -1 -0 -0 -0 -0 -0 -1 -2 -3 -3 -2 -2 -2 -2 -2 -3 -3 -3 -0 2 3 1 -5 -7 -5 -0 2 2 0 -2 -3 -5 -7 -9 -6 -0 6 9 3 -4 -8 -7 -6 -4 -4 -4 -4 -4 -3 -3 -3 -3 -4 -6 -6 -6 -5 -4 -3 -2 -1 -1 -0 0 1 1 1 1 1 1 1 0 -0 -0 1 2 3
-1 -0 -1 -2 -1 -1 -1 -1 -1 -0 0 0 -0 -1 -1 -2 -2 -3 -3 -3 -3 -2 -2 -2 -2 -3 -3 -1 1 2 1 -3 -5 -4 -0 2 3 1 -2 -2 -3 -5 -8 -8 -5 -0 6 6 2 -3 -6 -6 -6 -5 -5 -4 -4 -3 -2 -1 -2 -3 -4 -5 -4 -4 -3 -2 -1 -1 -0 -0 0 0 0 0 1 1 1 0 -0 -1 -0 1 2 3
-1 -0 -0 -1 -1 -1 -1 -1 -0 0 1 0 -0 -1 -1 -2 -2 -3 -3 -3 -3 -3 -2 -2 -2 -2 -2 -1 -0 0 -1 -3 -4 -3 0 2 3 2 -1 -1 -2 -2 -4 -6 -7 -5 -1 3 4 2 -2 -4 -5 -5 -5 -4 -4 -3 -2 -1 -1 -2 -3 -3 -3 -3 -2 -1 -1 -1 -1 -2 -1 -1 -1 -1 -0 -0 -0 -0 -1 -1 -1 0 1 2
0 -0 -0 -1 -1 -0 -0 0 0 1 1 -0 -0 -1 -1 -1 -2 -3 -3 -3 -3 -3 -2 -2 -2 -2 -2 -1 -0 -0 -2 -3 -4 -3 -0 1 2 1 -1 -2 -2 -1 -1 -3 -4 -5 -4 -1 1 2 1 -2 -4 -5 -4 -4 -3 -2 -2 -1 -1 -1 -2 -2 -2 -2 -1 -1 -1 -2 -3 -3 -3 -3 -2 -2 -2 -2 -1 -1 -1 -1 -1 -1 0 2
1 1 0 0 1 1 1 1 1 1 1 0 -0 -0 -0 -1 -2 -3 -3 -3 -3 -3 -2 -2 -2 -2 -2 -1 0 1 -0 -3 -4 -4 -1 -0 -0 -0 -1 -2 -3 -2 -1 -1 -2 -3 -3 -3 -1 0 2 -0 -3 -4 -4 -3 -2 -2 -1 -0 -0 -0 -1 -1 -1 -1 -1 -1 -1 -2 -3 -3 -3 -3 -3 -3 -3 -3 -2 -2 -2 -2 -2 -1 -0 1
2 2 2 2 2 2 2 2 1 1 0 0 -0 -0 -0 -1 -1 -2 -3 -3 -3 -3 -3 -3 -3 -3 -3 -1 0 1 1 -1 -3 -4 -3 -2 -2 -1 -1 -3 -4 -3 -1 -1 -1 -1 -1 -2 -2 -1 0 1 -1 -3 -4 -3 -2 -1 -1 -1 -0 -0 -1 -0 0 0 0 0 -1 -1 -2 -2 -2 -3 -3 -3 -3 -3 -2 -2 -2 -2 -2 -2 -1 0
2 2 3 3 3 3 2 2 1 0 -0 -0 -0 -0 -0 -1 -1 -2 -3 -3 -2 -2 -2 -3 -4 -4 -4 -3 -1 1 1 -0 -1 -2 -3 -3 -3 -2 -1 -3 -4 -4 -3 -2 -1 -0 1 0 -0 -1 -1 -0 -1 -1 -2 -2 -1 -1 -1 -2 -1 -1 -1 -0 1 2 2 1 1 -0 -1 -1 -1 -1 -1 -2 -2 -2 -1 -1 -1 -2 -2 -2 -1 -0
2 3 4 3 3 2 2 1 0 -0 -1 -1 -1 -1 -1 -1 -1 -2 -2 -2 -2 -2 -2 -3 -4 -6 -6 -5 -3 -1 -0 -0 -1 -2 -3 -4 -3 -2 -1 -2 -3 -4 -4 -4 -3 -1 0 1 2 1 0 -1 -2 -1 -1 -0 -0 -0 -1 -2 -2 -2 -2 -1 1 2 3 3 2 2 1 1 0 1 0 -0 -0 -0 -0 -0 -1 -1 -1 -1 -1 -0
2 3 3 3 3 2 2 1 -0 -0 -1 -0 -0 -0 -0 -1 -1 -2 -2 -2 -2 -1 -1 -3 -4 -6 -7 -7 -6 -4 -3 -2 -2 -3 -3 -4 -4 -3 -2 -1 -2 -3 -4 -4 -4 -3 -2 -0 1 2 2 1 -1 -2 -2 -1 1 1 1 -1 -2 -3 -3 -2 -0 2 3 3 3 3 3 3 3 3 3 2 2 1 1 0 -0 -1 -1 -1 -0 -0
2 3 3 3 2 2 1 1 -0 -0 -0 0 1 1 1 0 -0 -1 -1 -1 -1 -1 -1 -2 -3 -4 -6 -6 -6 -6 -5 -4 -4 -4 -4 -4 -4 -3 -2 -1 -1 -2 -3 -4 -4 -4 -3 -2 -0 1 2 2 1 -0 -2 -2 -0 1 2 1 -1 -3 -5 -4 -2 0 2 3 3 3 3 4 4 4 4 3 3 2 2 1 0 -1 -1 -1 -0 -0
2 2 2 2 2 1 1 1 0 0 0 1 1 1 2 1 -0 -1 -3 -3 -2 -2 -1 -1 -2 -4 -5 -6 -6 -6 -6 -5 -5 -4 -4 -4 -3 -3 -2 -1 -1 -1 -1 -2 -4 -4 -4 -3 -1 -0 1 2 2 1 -0 -2 -2 -0 2 3 2 -0 -4 -5 -4 -2 -0 1 1 2 2 2 2 2 2 2 1 1 1 1 0 -0 -1 -1 -0 -0
2 2 1 1 0 0 0 1 1 1 1 1 1 1 1 1 0 -1 -3 -4 -4 -3 -2 -1 -2 -3 -6 -7 -8 -7 -6 -6 -5 -4 -4 -3 -3 -2 -2 -1 -1 -1 -0 -1 -2 -4 -4 -3 -2 -1 1 2 2 2 1 -0 -1 -1 0 3 3 2 -0 -3 -4 -3 -2 -1 -1 -0 0 1 1 1 0 -0 -0 -0 -0 -0 -0 -1 -1 -1 -1 -0
1 1 1 0 -0 -0 -0 -0 0 0 1 1 1 2 1 1 1 1 -0 -2 -2 -2 -2 -1 -0 -1 -3 -6 -8 -9 -9 -7 -6 -4 -3 -3 -2 -2 -2 -2 -2 -1 -1 -0 -1 -2 -3 -3 -3 -2 -0 1 2 3 3 2 1 -0 -0 1 2 3 3 -0 -2 -3 -2 -2 -1 -1 -0 0 1 1 0 -0 -1 -1 -1 -1 -1 -1 -1 -1 -1 -1
1 0 0 -0 -0 -0 -0 -0 -0 -0 -0 0 0 0 1 1 1 1 1 1 -0 -0 -0 0 1 1 1 -2 -5 -7 -9 -9 -7 -5 -3 -3 -2 -2 -2 -2 -3 -3 -3 -2 -1 -1 -1 -2 -2 -2 -2 -0 1 2 3 3 3 2 1 0 1 2 4 2 1 -1 -1 -2 -2 -1 -0 1 2 2 1 1 -0 -1 -1 -1 -1 -0 -1 -1 -0 -0
-0 -0 -0 -0 -0 -0 -0 -0 -0 -0 -0 -0 -0 -1 -1 -0 0 1 1 1 0 0 0 1 1 2 2 1 0 -2 -5 -7 -7 -6 -4 -3 -2 -2 -1 -2 -3 -3 -4 -4 -3 -3 -2 -2 -2 -1 -1 -1 -1 -1 0 2 3 3 2 1 1 1 1 1 1 1 1 -0 -1 -1 -1 1 2 3 3 2 1 1 -0 -0 -0 -0 -0 0 1 1
-0 -1 -1 -0 -0 0 -0 -0 -0 -1 -1 -1 -1 -1 -1 -1 -1 -0 0 0 -0 -0 -0 1 1 2 2 3 3 3 1 -2 -4 -5 -5 -4 -4 -3 -2 -2 -2 -3 -4 -4 -4 -5 -4 -4 -3 -2 -1 -1 -1 -2 -3 -1 0 2 3 2 1 1 1 0 1 1 2 1 0 -0 -0 1 3 4 4 4 3 2 1 1 1 1 1 1 2 2
-1 -1 -1 -1 -0 0 0 -0 -0 -1 -1 -2 -2 -2 -1 -1 -1 -1 -1 -0 -0 -0 -1 -0 1 1 2 3 4 5 5 3 1 -1 -2 -3 -4 -4 -3 -2 -2 -2 -2 -3 -3 -4 -5 -6 -6 -5 -4 -2 -1 -1 -3 -4 -3 -1 1 2 2 1 1 -0 -1 -0 1 1 1 0 -0 1 2 4 5 5 5 4 3 3 3 3 3 3 4 4
-0 -1 -1 -1 -1 -0 -0 -0 -0 -1 -2 -3 -3 -3 -2 -2 -1 -1 -2 -1 -1 -0 -0 -1 -0 -0 0 1 2 3 5 5 5 4 2 1 -1 -2 -3 -2 -2 -1 -1 -2 -2 -2 -3 -5 -7 -8 -9 -6 -4 -3 -3 -4 -4 -3 -2 -0 1 1 1 -0 -1 -2 -1 -0 -0 -1 -1 -1 0 2 4 5 5 4 3 3 4 4 5 5 5 5
-0 -0 -1 -1 -1 -1 -1 -1 -1 -1 -2 -3 -3 -4 -3 -2 -2 -1 -1 -1 -1 -1 -0 -0 -0 -0 -1 -1 -1 -0 1 3 4 4 4 4 2 1 0 -0 -1 -1 -1 -1 -1 -1 -1 -2 -5 -8 -10 -10 -8 -6 -4 -3 -4 -3 -2 -1 0 1 2 1 0 -1 -1 -1 -1 -1 -2 -2 -1 -0 1 2 3 2 2 1 1 2 4 5 5 5
0 0 -0 -0 -1 -1 -1 -1 -1 -1 -1 -2 -3 -4 -4 -4 -2 -1 -1 -1 -1 -1 -0 0 0 0 -0 -1 -2 -2 -1 -0 1 2 3 3 3 3 2 2 1 1 1 0 -0 -0 -0 1 -0 -3 -6 -8 -9 -8 -6 -3 -2 -1 -0 1 2 3 4 4 3 2 1 1 0 -0 -1 -1 -1 -1 1 2 2 1 0 -1 -1 -1 0 2 3 4
0 0 0 0 -0 -0 -1 -1 -1 -1 -1 -1 -2 -2 -3 -3 -3 -3 -2 -1 -1 -1 -1 -0 -0 0 0 -0 -1 -2 -2 -1 -0 1 1 1 2 2 2 2 2 3 3 3 3 2 3 5 5 3 -1 -4 -6 -7 -7 -6 -3 1 4 4 4 5 6 6 7 6 5 4 3 2 1 0 0 0 1 2 2 2 0 -1 -3 -4 -3 -1 1 2
-0 -0 -0 -0 -0 -1 -1 -1 -1 -1 -1 -1 -1 -1 -1 -2 -2 -3 -2 -2 -2 -1 -1 -1 -1 -1 -0 -0 -1 -1 -2 -1 -0 0 0 1 1 1 1 1 1 2 3 4 4 5 6 8 10 10 7 1 -3 -6 -7 -8 -6 -2 3 5 6 6 6 7 8 8 8 6 5 4 4 3 3 3 3 4 4 3 2 -0 -3 -5 -5 -3 -1 1
Height
5641 5639 5637 5636 5634 5632 5630 5628 5627 5625 5622 5621 5619 5617 5614 5612 5610 5608 5606 5604 5602 5600 5597 5595 5593 5591 5589 5587 5585 5583 5581 5579 5577 5576 5574 5572 5570 5568 5567 5565 5563 5562 5560 5558 5556 5555 5553 5551 5549 5548 5546 5544 5542 5541 5539 5537 5535 5534 5532 5530 5528 5527 5525 5523 5522 5521 5519 5518 5517 5515 5514 5513 5512 5511 5510 5509 5508 5508 5507 5506 5506 5505 5504 5503 5503 5502
5636 5634 5632 5631 5629 5627 5625 5623 5622 5620 5617 5615 5613 5612 5609 5607 5605 5603 5601 5598 5596 5594 5592 5589 5587 5585 5583 5581 5578 5576 5574 5572 5570 5568 5566 5564 5562 5561 5559 5557 5555 5553 5552 5550 5548 5546 5544 5542 5541 5539 5537 5535 5533 5531 5529 5527 5526 5524 5522 5520 5518 5517 5515 5513 5512 5510 5509 5507 5506 5505 5504 5503 5502 5501 5500 5499 5498 5497 5497 5496 5495 5494 5494 5493 5493 5492
5631 5629 5627 5626 5624 5622 5620 5618 5616 5614 5612 5610 5607 5606 5604 5602 5600 5597 5596 5593 5590 5588 5586 5583 5581 5579 5576 5574 5572 5570 5567 5565 5563 5561 5559 5557 5555 5553 5551 5549 5547 5545 5543 5541 5539 5537 5535 5533 5531 5529 5527 5525 5523 5521 5519 5517 5515 5513 5512 5510 5508 5506 5504 5502 5501 5500 5498 5497 5496 5495 5493 5492 5492 5491 5490 5489 5488 5487 5487 5486 5485 5484 5484 5483 5483 5482
5627 5624 5622 5621 5619 5617 5615 5613 5610 5608 5606 5604 5602 5600 5598 5597 5594 5592 5590 5588 5585 5582 5580 5577 5575 5572 5570 5567 5565 5563 5560 5558 5556 5554 5552 5550 5547 5545 5543 5541 5539 5537 5534 5532 5530 5527 5525 5523 5521 5519 5517 5515 5513 5511 5508 5507 5505 5503 5501 5499 5497 5495 5494 5492 5491 5489 5488 5487 5486 5484 5484 5483 5482 5481 5480 5479 5479 5478 5477 5476 5476 5475 5474 5474 5474 5473
5622 5619 5617 5615 5614 5612 5609 5607 5605 5602 5600 5598 5596 5594 5592 5591 5589 5587 5584 5582 5580 5577 5574 5571 5569 5566 5563 5561 5558 5556 5553 5551 5549 5547 5544 5542 5540 5537 5535 5532 5530 5527 5525 5522 5520 5517 5515 5513 5510 5508 5506 5504 5502 5500 5498 5496 5494 5492 5490 5489 5487 5485 5484 5482 5481 5479 5478 5477 5476 5475 5474 5473 5473 5472 5471 5471 5470 5469 5468 5468 5467 5467 5466 5466 5465 5465
5616 5614 5612 5610 5608 5606 5604 5601 5599 5597 5594 5592 5591 5589 5587 5585 5583 5581 5579 5577 5574 5571 5568 5566 5563 5560 5557 5554 5551 5549 5547 5544 5542 5539 5537 5534 5532 5529 5527 5524 5521 5518 5516 5513 5510 5507 5505 5502 5500 5498 5496 5494 5492 5490 5487 5486 5484 5482 5481 5479 5477 5476 5475 5473 5472 5471 5470 5469 5468 5467 5466 5465 5464 5464 5463 5462 5462 5461 5461 5460 5459 5459 5458 5458 5457 5457
5611 5609 5607 5604 5602 5600 5598 5596 5593 5591 5589 5587 5585 5583 5582 5580 5577 5575 5573 5571 5568 5565 5562 5559 5557 5553 5550 5547 5544 5542 5539 5537 5535 5532 5530 5527 5524 5521 5518 5515 5512 5509 5506 5503 5500 5497 5495 5492 5490 5488 5486 5484 5482 5480 5478 5477 5475 5473 5472 5470 5469 5468 5467 5465 5464 5463 5462 5461 5460 5459 5458 5457 5457 5456 5455 5455 5454 5454 5453 5452 5452 5452 5451 5451 5450 5450
5605 5603 5601 5599 5597 5594 5592 5590 5587 5585 5583 5582 5580 5578 5576 5574 5572 5570 5567 5565 5562 5559 5557 5553 5550 5547 5543 5540 5537 5534 5532 5530 5528 5525 5522 5519 5516 5513 5510 5507 5503 5500 5497 5494 5491 5488 5485 5482 5481 5478 5477 5475 5473 5471 5469 5468 5466 5465 5464 5462 5461 5460 5459 5458 5457 5456 5455 5454 5453 5452 5452 5451 5450 5449 5448 5448 5447 5447 5446 5445 5445 5445 5444 5444 5443 5443
5600 5597 5595 5594 5592 5589 5587 5584 5582 5580 5578 5576 5574 5573 5571 5569 5567 5564 5562 5559 5556 5553 5550 5547 5544 5540 5537 5533 5530 5527 5525 5522 5520 5518 5515 5512 5508 5505 5502 5498 5495 5491 5488 5485 5482 5479 5476 5474 5472 5470 5468 5467 5465 5463 5461 5460 5458 5457 5456 5455 5454 5453 5452 5451 5450 5449 5448 5447 5446 5446 5445 5444 5443 5442 5442 5441 5440 5440 5439 5438 5438 5438 5437 5437 5437 5437
5595 5592 5590 5587 5586 5584 5582 5579 5576 5574 5572 5570 5568 5566 5565 5563 5561 5559 5556 5554 5551 5547 5544 5541 5538 5535 5530 5526 5522 5520 5518 5515 5512 5510 5507 5504 5501 5497 5493 5490 5487 5483 5480 5477 5473 5471 5468 5466 5464 5462 5461 5459 5457 5455 5454 5452 5451 5450 5449 5447 5447 5446 5445 5444 5443 5442 5441 5440 5440 5439 5438 5437 5437 5436 5435 5434 5434 5433 5432 5432 5431 5431 5431 5431 5431 5430
5589 5587 5585 5582 5580 5578 5576 5574 5571 5568 5567 5565 5562 5560 5558 5557 5555 5553 5550 5548 5545 5542 5538 5535 5532 5529 5525 5520 5516 5512 5511 5508 5505 5502 5499 5496 5492 5489 5486 5482 5479 5476 5473 5470 5466 5463 5461 5459 5457 5455 5453 5452 5450 5448 5446 5445 5444 5442 5441 5440 5439 5438 5437 5437 5436 5435 5434 5433 5433 5432 5431 5431 5430 5429 5429 5428 5427 5426 5426 5425 5425 5424 5424 5424 5423 5423
5584 5582 5579 5577 5575 5572 5570 5568 5566 5563 5562 5560 5557 5554 5552 5550 5549 5547 5544 5542 5539 5537 5533 5529 5525 5522 5518 5514 5510 5506 5503 5501 5498 5495 5492 5488 5484 5481 5478 5475 5472 5469 5466 5463 5460 5457 5454 5452 5450 5448 5446 5444 5442 5440 5438 5437 5436 5435 5434 5433 5432 5431 5430 5429 5428 5428 5427 5426 5426 5425 5424 5424 5423 5423 5422 5421 5421 5420 5419 5419 5418 5418 5417 5417 5417 5417
5578 5576 5574 5572 5569 5567 5565 5563 5560 5558 5556 5554 5552 5549 5547 5544 5542 5540 5538 5536 5533 5531 5528 5524 5520 5515 5511 5507 5503 5499 5497 5494 5492 5489 5486 5482 5478 5475 5472 5469 5466 5463 5460 5457 5453 5450 5447 5446 5443 5441 5438 5437 5434 5432 5431 5429 5428 5427 5426 5425 5424 5423 5422 5422 5421 5420 5420 5419 5418 5418 5417 5417 5416 5416 5415 5415 5414 5413 5413 5412 5412 5411 5411 5411 5410 5410
5573 5571 5569 5566 5564 5562 5559 5557 5555 5552 5550 5548 5546 5544 5542 5539 5536 5534 5532 5529 5526 5524 5521 5518 5514 5510 5505 5500 5496 5492 5490 5488 5486 5483 5480 5476 5472 5469 5467 5464 5461 5457 5455 5452 5448 5444 5441 5439 5437 5434 5431 5429 5427 5424 5422 5421 5420 5418 5417 5416 5415 5415 5414 5413 5413 5412 5412 5412 5411 5411 5410 5410 5409 5409 5408 5408 5407 5407 5406 5406 5405 5405 5404 5404 5404 5404
5568 5566 5563 5561 5558 5556 5554 5552 5549 5547 5544 5542 5541 5538 5535 5532 5530 5528 5526 5522 5519 5517 5514 5512 5508 5504 5499 5494 5489 5486 5483 5481 5479 5478 5476 5472 5467 5463 5461 5459 5456 5452 5449 5447 5443 5439 5435 5433 5430 5427 5424 5421 5419 5416 5414 5412 5411 5410 5409 5408 5407 5407 5406 5405 5405 5405 5404 5404 5404 5403 5403 5402 5402 5402 5402 5402 5401 5401 5400 5399 5399 5399 5398 5398 5398 5397
5563 5561 5558 5555 5553 5551 5548 5546 5543 5541 5538 5537 5534 5532 5530 5527 5524 5521 5519 5516 5513 5510 5507 5505 5502 5498 5492 5487 5482 5479 5477 5476 5473 5472 5471 5468 5462 5457 5455 5453 5451 5447 5444 5441 5437 5433 5429 5426 5423 5420 5417 5414 5411 5408 5406 5405 5403 5402 5401 5400 5399 5398 5398 5397 5397 5397 5397 5397 5397 5396 5396 5396 5396 5395 5395 5395 5395 5394 5394 5393 5393 5392 5392 5392 5392 5392
5557 5555 5552 5550 5547 5545 5542 5540 5538 5535 5533 5531 5528 5526 5524 5521 5518 5515 5512 5510 5507 5504 5500 5497 5495 5492 5488 5482 5476 5472 5471 5471 5469 5466 5465 5463 5458 5453 5449 5447 5445 5442 5438 5435 5431 5427 5423 5420 5417 5413 5410 5407 5404 5401 5398 5397 5395 5394 5393 5392 5391 5390 5390 5390 5390 5389 5389 5389 5389 5389 5389 5389 5389 5389 5389 5389 5388 5388 5388 5387 5387 5387 5387 5386 5386 5386
5552 5549 5547 5544 5542 5539 5537 5534 5532 5529 5527 5525 5523 5520 5517 5514 5512 5509 5506 5503 5500 5497 5494 5491 5487 5485 5482 5478 5472 5467 5465 5465 5464 5462 5460 5458 5454 5448 5444 5442 5439 5436 5432 5429 5424 5420 5417 5413 5410 5407 5403 5399 5396 5394 5391 5389 5388 5387 5386 5385 5384 5383 5383 5382 5382 5382 5382 5382 5382 5382 5382 5382 5382 5382 5382 5382 5382 5382 5382 5382 5382 5381 5381 5381 5381 5381
5545 5543 5541 5538 5535 5533 5531 5528 5526 5523 5521 5519 5517 5514 5512 5508 5506 5503 5500 5497 5493 5491 5488 5485 5482 5478 5475 5472 5468 5463 5460 5460 5459 5457 5455 5453 5449 5444 5439 5436 5433 5430 5427 5423 5418 5414 5410 5407 5404 5400 5396 5392 5389 5387 5384 5382 5381 5380 5379 5378 5377 5377 5376 5376 5376 5376 5375 5376 5376 5376 5376 5376 5376 5377 5377 5377 5377 5377 5377 5376 5376 5376 5376 5375 5375 5375
5539 5537 5534 5532 5530 5527 5525 5522 5520 5517 5515 5512 5510 5508 5506 5503 5500 5497 5493 5490 5487 5484 5482 5479 5476 5472 5470 5467 5463 5459 5456 5455 5453 5452 5450 5448 5445 5439 5434 5431 5427 5424 5421 5417 5412 5408 5405 5401 5397 5394 5390 5386 5383 5380 5377 5376 5374 5373 5372 5372 5371 5370 5370 5370 5369 5369 5369 5369 5369 5370 5370 5370 5371 5371 5371 5371 5371 5371 5371 5371 5371 5371 5370 5370 5370 5370
5533 5531 5528 5526 5524 5522 5519 5517 5514 5511 5509 5506 5504 5502 5499 5497 5494 5491 5487 5485 5482 5479 5476 5474 5471 5468 5465 5462 5459 5454 5451 5450 5448 5447 5445 5443 5439 5435 5429 5425 5422 5418 5415 5411 5407 5402 5399 5395 5392 5388 5384 5380 5377 5373 5371 5369 5368 5367 5366 5365 5365 5364 5364 5363 5363 5363 5363 5363 5363 5364 5364 5365 5365 5365 5365 5365 5366 5366 5366 5366 5366 5366 5365 5366 5365 5365
5528 5525 5522 5520 5518 5517 5514 5511 5508 5505 5502 5500 5498 5496 5493 5491 5488 5485 5481 5479 5477 5474 5472 5469 5466 5463 5461 5458 5454 5450 5446 5444 5442 5441 5439 5437 5434 5429 5424 5420 5416 5413 5409 5405 5401 5397 5394 5390 5387 5383 5379 5375 5372 5368 5365 5363 5362 5360 5360 5359 5358 5358 5357 5357 5357 5357 5357 5357 5358 5358 5359 5359 5359 5359 5360 5360 5360 5360 5361 5361 5361 5361 5361 5361 5361 5361
5522 5520 5517 5514 5512 5510 5508 5505 5502 5499 5496 5494 5492 5490 5487 5485 5482 5479 5476 5474 5472 5470 5467 5465 5462 5459 5456 5453 5449 5445 5441 5438 5436 5435 5433 5431 5428 5424 5419 5414 5410 5407 5404 5400 5396 5392 5388 5385 5382 5378 5374 5371 5367 5363 5360 5357 5356 5354 5353 5353 5352 5352 5352 5351 5351 5351 5352 5352 5352 5353 5353 5354 5354 5354 5354 5355 5355 5355 5356 5356 5356 5356 5356 5356 5356 5356
5516 5514 5512 5509 5507 5504 5502 5499 5496 5493 5491 5488 5486 5484 5481 5479 5476 5473 5471 5468 5467 5465 5463 5461 5458 5455 5452 5448 5445 5440 5436 5433 5431 5429 5427 5425 5422 5419 5414 5409 5405 5402 5399 5395 5391 5387 5383 5381 5377 5373 5370 5366 5362 5359 5356 5353 5351 5349 5348 5347 5347 5346 5346 5346 5345 5346 5346 5346 5347 5347 5348 5348 5349 5349 5349 5349 5350 5350 5351 5351 5351 5352 5352 5352 5352 5352
5511 5508 5506 5503 5501 5499 5496 5493 5491 5488 5486 5483 5481 5478 5476 5473 5470 5468 5465 5463 5462 5460 5459 5457 5454 5451 5447 5444 5440 5436 5431 5428 5427 5425 5423 5420 5417 5414 5409 5405 5401 5397 5394 5391 5387 5383 5379 5376 5373 5369 5366 5362 5358 5355 5352 5349 5346 5344 5343 5342 5341 5341 5340 5340 5340 5340 5341 5341 5342 5342 5343 5343 5343 5344 5344 5344 5345 5345 5346 5346 5347 5347 5347 5348 5348 5348
5505 5502 5500 5498 5496 5493 5491 5488 5485 5482 5480 5477 5475 5472 5471 5468 5466 5463 5461 5459 5458 5456 5454 5452 5449 5446 5443 5440 5436 5432 5428 5425 5423 5421 5419 5416 5413 5409 5406 5401 5397 5394 5390 5387 5383 5380 5376 5372 5369 5366 5362 5358 5355 5352 5348 5345 5342 5341 5339 5337 5337 5336 5336 5335 5335 5335 5336 5336 5337 5337 5338 5338 5339 5339 5339 5340 5340 5341 5341 5342 5342 5342 5343 5344 5344 5345
5499 5497 5495 5492 5490 5487 5485 5482 5479 5477 5474 5472 5469 5467 5466 5464 5462 5460 5457 5455 5454 5452 5450 5447 5445 5442 5439 5436 5432 5428 5425 5422 5419 5418 5416 5413 5409 5406 5402 5398 5394 5391 5387 5384 5381 5377 5373 5369 5366 5362 5358 5355 5352 5348 5345 5342 5340 5337 5335 5334 5333 5332 5331 5331 5331 5331 5331 5332 5332 5333 5333 5334 5334 5335 5335 5335 5336 5336 5337 5337 5338 5338 5339 5340 5340 5341
5493 5491 5489 5487 5484 5482 5479 5477 5474 5471 5469 5467 5465 5462 5461 5460 5458 5456 5453 5452 5450 5448 5445 5443 5441 5438 5435 5432 5429 5425 5422 5419 5417 5415 5412 5410 5406 5402 5399 5395 5391 5388 5384 5382 5379 5375 5371 5367 5362 5359 5356 5352 5349 5346 5343 5340 5337 5335 5333 5331 5330 5329 5328 5327 5327 5327 5327 5328 5328 5329 5329 5330 5330 5331 5331 5331 5332 5332 5333 5333 5334 5334 5335 5336 5336 5337
5487 5485 5483 5481 5478 5476 5474 5471 5468 5466 5464 5462 5460 5458 5457 5456 5454 5452 5450 5448 5446 5444 5441 5438 5436 5434 5432 5429 5426 5422 5419 5416 5413 5412 5409 5407 5403 5400 5396 5392 5388 5385 5382 5379 5377 5374 5370 5365 5360 5357 5353 5351 5347 5344 5341 5338 5335 5333 5331 5329 5328 5327 5326 5325 5325 5324 5325 5325 5325 5326 5326 5326 5327 5327 5327 5328 5328 5328 5329 5329 5330 5330 5331 5332 5332 5333
5481 5479 5477 5475 5472 5471 5468 5466 5464 5462 5460 5458 5456 5454 5452 5451 5450 5448 5446 5444 5442 5440 5437 5434 5432 5430 5428 5425 5423 5420 5416 5413 5411 5408 5406 5403 5400 5397 5394 5390 5386 5382 5379 5376 5374 5372 5369 5365 5360 5355 5352 5349 5346 5342 5339 5337 5334 5332 5330 5328 5327 5326 5324 5323 5323 5322 5322 5322 5322 5323 5323 5323 5323 5324 5324 5324 5324 5325 5325 5326 5326 5326 5327 5328 5328 5329
5475 5473 5471 5469 5467 5465 5463 5461 5459 5457 5455 5454 5452 5451 5449 5447 5446 5444 5442 5440 5438 5436 5433 5431 5428 5426 5424 5422 5419 5417 5413 5411 5408 5406 5403 5401 5398 5394 5391 5387 5384 5381 5377 5374 5371 5369 5367 5364 5360 5355 5351 5347 5344 5341 5338 5336 5333 5331 5329 5328 5326 5325 5323 5322 5321 5321 5321 5321 5320 5320 5320 5320 5320 5321 5321 5321 5321 5321 5322 5322 5322 5322 5323 5324 5325 5325
5469 5467 5465 5463 5461 5459 5457 5456 5454 5453 5452 5450 5449 5447 5446 5444 5442 5441 5438 5436 5434 5432 5430 5427 5425 5422 5420 5418 5416 5413 5410 5408 5405 5403 5400 5398 5395 5392 5389 5386 5382 5379 5376 5372 5369 5367 5364 5362 5359 5355 5351 5347 5344 5340 5337 5335 5332 5331 5329 5327 5326 5324 5323 5321 5320 5320 5319 5319 5318 5318 5318 5318 5317 5317 5317 5317 5318 5318 5318 5318 5318 5319 5319 5320 5321 5321
5463 5461 5459 5457 5456 5454 5453 5452 5451 5450 5448 5447 5446 5444 5443 5441 5439 5437 5435 5432 5430 5428 5426 5424 5422 5419 5417 5415 5412 5410 5407 5404 5402 5400 5397 5395 5392 5390 5387 5383 5380 5377 5374 5371 5368 5365 5362 5359 5357 5354 5351 5347 5343 5340 5337 5335 5332 5330 5328 5327 5325 5324 5322 5321 5319 5318 5318 5317 5317 5316 5316 5315 5315 5315 5315 5314 5314 5315 5315 5315 5315 5315 5316 5316 5317 5317
5457 5456 5454 5453 5451 5450 5449 5448 5447 5447 5446 5445 5443 5442 5440 5438 5436 5433 5431 5429 5427 5424 5422 5420 5418 5416 5414 5412 5409 5407 5404 5402 5399 5397 5394 5392 5389 5387 5384 5381 5378 5375 5372 5369 5367 5364 5361 5358 5355 5352 5350 5347 5343 5340 5337 5334 5332 5330 5328 5326 5325 5323 5322 5320 5319 5317 5317 5316 5315 5314 5313 5313 5312 5312 5312 5312 5312 5311 5311 5311 5312 5312 5312 5312 5312 5313
5453 5451 5450 5449 5448 5447 5446 5446 5445 5444 5443 5442 5441 5439 5437 5435 5432 5430 5428 5425 5423 5421 5418 5416 5414 5412 5410 5408 5406 5404 5402 5399 5396 5393 5391 5389 5387 5384 5382 5379 5376 5373 5370 5368 5365 5362 5359 5357 5354 5351 5349 5346 5343 5340 5337 5334 5332 5329 5327 5326 5324 5322 5321 5319 5318 5317 5315 5314 5313 5312 5311 5311 5310 5309 5309 5308 5308 5308 5308 5308 5308 5308 5308 5308 5308 5309
5449 5448 5447 5446 5446 5445 5444 5444 5443 5442 5441 5439 5438 5436 5434 5432 5429 5427 5424 5422 5420 5417 5415 5412 5411 5408 5407 5405 5403 5401 5398 5396 5393 5391 5388 5386 5384 5382 5379 5376 5374 5371 5368 5366 5363 5361 5358 5356 5353 5350 5347 5345 5342 5339 5336 5334 5331 5329 5327 5325 5323 5321 5320 5318 5317 5315 5314 5313 5312 5311 5310 5309 5308 5307 5307 5306 5305 5305 5305 5304 5304 5304 5304 5304 5304 5305
5446 5445 5444 5444 5444 5443 5442 5442 5441 5440 5438 5437 5435 5433 5431 5429 5426 5424 5421 5419 5417 5414 5412 5409 5407 5405 5403 5401 5399 5397 5395 5393 5390 5388 5386 5383 5381 5379 5377 5374 5372 5369 5367 5364 5362 5359 5357 5354 5352 5349 5347 5344 5341 5338 5336 5334 5332 5329 5327 5325 5322 5321 5319 5317 5316 5314 5313 5312 5311 5310 5308 5307 5306 5305 5305 5304 5303 5302 5302 5302 5301 5301 5301 5301 5301 5301
5443 5443 5443 5442 5442 5442 5441 5440 5439 5437 5436 5434 5432 5431 5428 5426 5423 5421 5418 5416 5413 5411 5409 5407 5404 5402 5400 5398 5396 5394 5392 5390 5387 5385 5383 5381 5379 5377 5374 5372 5369 5367 5364 5362 5360 5357 5355 5353 5350 5348 5346 5343 5340 5337 5335 5333 5331 5329 5327 5324 5322 5320 5318 5316 5315 5313 5312 5311 5310 5309 5307 5306 5305 5304 5303 5302 5301 5300 5300 5299 5298 5298 5297 5297 5297 5297
5442 5442 5441 5441 5441 5440 5439 5438 5437 5435 5434 5432 5430 5428 5426 5423 5421 5418 5416 5413 5411 5408 5406 5404 5401 5399 5397 5395 5393 5391 5389 5387 5385 5383 5381 5378 5377 5374 5372 5370 5367 5365 5362 5360 5358 5356 5353 5351 5349 5347 5344 5342 5340 5337 5335 5332 5331 5329 5327 5325 5322 5319 5317 5315 5314 5312 5311 5310 5309 5308 5307 5305 5304 5303 5302 5301 5300 5299 5298 5297 5296 5296 5295 5295 5295 5295
5440 5440 5440 5440 5439 5438 5437 5436 5434 5433 5431 5430 5428 5426 5423 5421 5418 5415 5413 5410 5408 5406 5404 5401 5399 5397 5394 5392 5390 5388 5386 5384 5382 5381 5378 5376 5374 5372 5370 5368 5366 5363 5361 5358 5356 5354 5352 5349 5347 5345 5343 5341 5339 5336 5334 5332 5330 5328 5327 5324 5322 5320 5317 5315 5313 5312 5310 5309 5308 5307 5305 5304 5303 5302 5301 5299 5298 5297 5296 5295 5294 5294 5293 5292 5292 5292
5439 5439 5439 5438 5437 5436 5435 5433 5432 5431 5429 5427 5426 5423 5421 5419 5416 5413 5410 5408 5406 5403 5401 5399 5397 5394 5392 5390 5387 5386 5384 5382 5380 5378 5377 5374 5372 5370 5368 5366 5363 5361 5359 5357 5354 5352 5350 5347 5346 5344 5342 5340 5337 5336 5333 5331 5329 5327 5325 5323 5322 5320 5317 5315 5312 5311 5310 5308 5307 5306 5304 5303 5302 5301 5299 5298 5297 5296 5295 5294 5293 5292 5291 5291 5290 5290
5438 5438 5437 5436 5435 5434 5433 5431 5430 5428 5427 5425 5423 5421 5419 5417 5414 5411 5409 5406 5404 5402 5399 5397 5395 5393 5390 5388 5386 5383 5382 5380 5378 5377 5375 5372 5370 5368 5366 5364 5362 5359 5357 5355 5353 5350 5348 5346 5344 5342 5340 5338 5337 5334 5332 5330 5328 5326 5324 5322 5321 5319 5317 5315 5312 5310 5309 5308 5306 5305 5303 5302 5301 5300 5299 5297 5296 5295 5294 5292 5292 5291 5290 5289 5289 5289
5437 5437 5435 5434 5433 5432 5431 5429 5428 5426 5425 5423 5421 5419 5417 5414 5412 5409 5407 5404 5402 5400 5397 5395 5393 5391 5389 5387 5384 5382 5380 5378 5376 5374 5373 5371 5369 5367 5364 5362 5360 5357 5355 5353 5351 5349 5347 5344 5342 5340 5338 5337 5335 5333 5331 5329 5327 5325 5323 5322 5320 5318 5316 5315 5312 5311 5309 5307 5306 5304 5303 5302 5301 5300 5298 5297 5295 5294 5293 5292 5291 5290 5289 5288 5288 5287
5436 5435 5434 5432 5431 5430 5429 5427 5426 5424 5422 5421 5419 5417 5414 5412 5410 5407 5405 5402 5400 5398 5396 5393 5392 5390 5387 5386 5383 5381 5379 5377 5374 5372 5371 5369 5367 5365 5363 5361 5358 5356 5353 5352 5349 5347 5345 5342 5340 5338 5336 5335 5333 5331 5329 5327 5326 5324 5322 5320 5318 5317 5315 5313 5312 5310 5308 5307 5305 5303 5302 5301 5300 5299 5298 5297 5295 5293 5292 5291 5290 5289 5288 5288 5287 5287
5434 5433 5432 5431 5430 5428 5427 5426 5424 5422 5420 5418 5417 5414 5412 5410 5407 5405 5403 5400 5398 5396 5394 5392 5390 5388 5386 5384 5382 5380 5378 5376 5373 5371 5369 5367 5365 5363 5361 5359 5357 5354 5352 5350 5347 5345 5343 5341 5338 5337 5334 5332 5331 5329 5327 5325 5324 5322 5321 5319 5317 5315 5313 5312 5310 5309 5307 5306 5304 5303 5301 5300 5299 5298 5297 5297 5295 5293 5292 5291 5290 5289 5288 5287 5287 5287
5433 5432 5431 5429 5428 5427 5425 5424 5422 5420 5418 5416 5414 5412 5410 5407 5405 5403 5401 5398 5396 5394 5392 5390 5388 5386 5384 5382 5381 5379 5377 5375 5372 5370 5367 5365 5363 5361 5359 5357 5355 5352 5350 5348 5346 5344 5342 5339 5337 5335 5333 5331 5329 5327 5325 5323 5321 5320 5319 5317 5316 5314 5312 5310 5308 5307 5306 5304 5303 5301 5300 5299 5298 5298 5297 5296 5295 5293 5292 5291 5290 5289 5288 5287 5287 5287
5432 5430 5429 5428 5426 5425 5423 5422 5420 5418 5416 5414 5412 5410 5408 5406 5403 5401 5399 5397 5394 5392 5390 5388 5386 5384 5382 5380 5378 5377 5375 5373 5371 5369 5367 5364 5362 5360 5357 5355 5353 5351 5349 5347 5344 5342 5340 5337 5335 5333 5332 5330 5328 5326 5323 5321 5319 5318 5317 5316 5314 5313 5311 5309 5307 5305 5304 5302 5301 5300 5298 5297 5297 5296 5295 5295 5294 5293 5292 5290 5289 5289 5288 5287 5287 5287
5430 5429 5427 5426 5425 5423 5422 5420 5418 5416 5414 5412 5410 5408 5406 5403 5401 5399 5397 5395 5392 5391 5388 5386 5384 5382 5380 5378 5377 5375 5373 5371 5369 5367 5366 5364 5361 5359 5356 5354 5352 5350 5347 5345 5343 5341 5338 5336 5333 5331 5330 5328 5327 5325 5323 5321 5318 5316 5315 5313 5312 5311 5310 5308 5307 5305 5303 5301 5300 5298 5297 5296 5295 5294 5293 5293 5292 5291 5290 5289 5288 5287 5287 5287 5286 5286
5429 5427 5426 5424 5423 5421 5420 5418 5416 5414 5412 5410 5408 5406 5404 5402 5399 5397 5395 5393 5391 5389 5387 5385 5382 5381 5378 5377 5375 5373 5371 5369 5367 5366 5364 5362 5360 5358 5355 5353 5351 5349 5347 5344 5342 5340 5337 5335 5332 5330 5327 5326 5324 5323 5322 5320 5318 5316 5314 5312 5311 5310 5308 5307 5306 5304 5302 5301 5299 5297 5296 5295 5294 5293 5292 5292 5291 5290 5289 5288 5287 5286 5286 5285 5285 5285
5427 5426 5424 5423 5421 5419 5418 5416 5414 5412 5410 5408 5406 5404 5402 5400 5398 5396 5393 5391 5389 5387 5385 5383 5381 5379 5377 5375 5373 5371 5369 5367 5366 5364 5362 5360 5358 5356 5354 5352 5350 5348 5346 5344 5342 5340 5337 5335 5332 5329 5326 5323 5321 5320 5319 5318 5317 5315 5313 5311 5309 5308 5307 5306 5305 5303 5302 5300 5299 5297 5296 5294 5293 5292 5291 5290 5290 5289 5288 5287 5286 5285 5284 5284 5284 5284
5426 5424 5423 5421 5419 5418 5416 5414 5412 5410 5408 5407 5405 5403 5401 5398 5396 5394 5392 5390 5387 5385 5383 5381 5379 5377 5375 5373 5372 5370 5367 5366 5364 5362 5360 5358 5356 5354 5352 5350 5348 5347 5345 5343 5341 5339 5337 5335 5333 5330 5327 5323 5320 5317 5316 5315 5314 5313 5312 5310 5308 5307 5305 5304 5303 5302 5301 5299 5297 5296 5295 5293 5292 5291 5290 5289 5288 5287 5287 5286 5285 5284 5283 5282 5282 5282